Regional Weather Roundup
Issued by NWS

Home | Current Version | Previous Version | Text Only | Print | Product List | Glossary Off
Versions: 1 2 3 4 5 6 7 8 9 10 11 12 13 14 15 16 17 18 19 20 21 22 23 24 25 26 27 28 29 30 31 32 33 34 35 36 37 38 39 40 41 42 43 44 45 46 47 48 49 50

000
ASUS44 KMEG 301310
RWRTN
TENNESSEE HOURLY STATE WEATHER ROUNDUP
NATIONAL WEATHER SERVICE MEMPHIS TN
800 AM CDT MON MAY 30 2016

TNZ002-004-019-021-049-052-054-088>092-301400-
WEST TENNESSEE

CITY           SKY/WX    TMP DP  RH WIND       PRES   REMARKS
MEMPHIS INTL   PTSUNNY   80  68  66 CALM      30.08R
NWS MEMPHIS      N/A     77 N/A N/A MISG        N/A
JACKSON        SUNNY     75  67  76 CALM      30.08R
DYERSBURG      SUNNY     75  64  69 E3        30.08R
UNION CITY     SUNNY     72  70  94 CALM      30.07R
PARIS          SUNNY     73  63  68 NE3       30.09R
LEXINGTON      SUNNY     73  68  83 CALM      30.07R
$$

TNZ008-025-027-028-033-062-065-066-301400-
NORTH MIDDLE TENNESSEE

CITY           SKY/WX    TMP DP  RH WIND       PRES   REMARKS
NASHVILLE      MOSUNNY   77  64  64 VRB3      30.07R
CLARKSVILLE    SUNNY     75  63  66 NE3       30.07R
SMYRNA         SUNNY     74  67  78 CALM      30.08R
COOKEVILLE     SUNNY     72  66  83 CALM      30.07R
CROSSVILLE     SUNNY     72  64  76 VRB3      30.11R
$$

TNZ061-075-076-078-094-096-097-301400-
SOUTH MIDDLE TENNESSEE

CITY           SKY/WX    TMP DP  RH WIND       PRES   REMARKS
FAYETTEVILLE   SUNNY     73  68  83 N7        30.07R
TULLAHOMA      SUNNY     73  70  88 N5        30.09R
WINCHESTER     SUNNY     72  66  83 CALM      30.08R
MCMINNVILLE    SUNNY     73  70  88 NE3       30.08R
COLUMBIA       SUNNY    N/A N/A N/A CALM      30.06R
SHELBYVILLE    SUNNY     75  70  83 N5        30.08R
$$

TNZ017-018-042-046-047-301400-
NORTHEAST TENNESSEE

CITY           SKY/WX    TMP DP  RH WIND       PRES   REMARKS
TRI CITIES     MOSUNNY   68  61  78 CALM      30.09S
$$

TNZ012-013-036-069-073-074-301400-
CENTRAL EAST TENNESSEE

CITY           SKY/WX    TMP DP  RH WIND       PRES   REMARKS
KNOXVILLE      CLOUDY    66  65  96 NW3       30.07R FOG
OAK RIDGE      SUNNY     71  65  81 VRB3      30.07S
GATLINBURG     SUNNY     66  61  82 S3        30.06S
$$

TNZ083-085-099-301400-
SOUTHEAST TENNESSEE

CITY           SKY/WX    TMP DP  RH WIND       PRES   REMARKS
CHATTANOOGA    PTSUNNY   76  64  66 N3        30.06R
$$

SKY/WX REPORTED AS FAIR MEANS FEW OR NO CLOUDS BELOW
12 THOUSAND FEET.





USA.gov is the U.S. government's official web portal to all federal, state and local government web resources and services.